Tracking 27122 objects as of 24-Mar-2023
HD Live streaming from Space Station
objects crossing your sky now

COSMOS 2251 DEB

Track COSMOS 2251 DEB now!
10-day predictions


NORAD ID: 36073
Int'l Code: 1993-036AYL
Perigee: 770.7 km
Apogee: 808.3 km
Inclination: 74.0 °
Period: 100.5 minutes
Semi major axis: 7160 km
RCS: 0.011 m2 (small)
Launch date: June 16, 1993
Source: Commonwealth of Independent States (former USSR) (CIS)
Launch site: PLESETSK MISSILE AND SPACE COMPLEX (PKMTR)

Note: This is SATELLITE DEBRIS
Your satellite tracking list
Your tracking list is empty




NASA's NSSDC Master Catalog

Two Line Element Set (TLE):
1 36073U 93036AYL 23082.10777115  .00000853  00000-0  32116-3 0  9996
2 36073  74.0345 344.4034 0026299 294.5522  65.2888 14.32807915559379
Source of the keplerian elements: AFSPC